Orbital Elements at Epoch 2459000.5 (2020-May-31.0) TDB
Reference: JPL 11 (heliocentric ecliptic J2000)
Element | Value | Uncertainty (1-sigma) | Units |
e | .2154107521166003 | 8.4431e-08 | |
a | 2.7841766506924 | 4.6497e-08 | au |
q | 2.184435064341272 | 2.534e-07 | au |
i | 15.35320815820402 | 1.052e-05 | deg |
node | 61.59423781536016 | 3.4735e-05 | deg |
peri | 93.02699006103499 | 8.0208e-05 | deg |
M | 155.679684301633 | 4.7417e-05 | deg |
tp | 2458266.707871356075 (2018-May-28.20787136) | 0.00022949 | TDB |
period | 1696.850603833361 4.65 | 4.2507e-05 1.164e-07 | d yr |
n | .2121577463488671 | 5.3146e-09 | deg/d |
Q | 3.383918237043526 | 5.6512e-08 | au |
|
| | Orbit Determination Parameters
Additional Information
|